| time (UTC) | temp F | wind direction | speed knots | gust knots | rain 1hr in | rain 24hr in | rain mn in | humidity % | barometer mb |
| 20260506164009 | 59 | 297 | 0.0 | 2.6 | 0.00 | 0.00 | 0.00 | 83 | 1021.3 |
| 20260506163505 | 59 | 255 | 0.0 | 1.7 | 0.00 | 0.00 | 0.00 | 85 | 1021.3 |
| 20260506163014 | 59 | 229 | 0.0 | 1.7 | 0.00 | 0.00 | 0.00 | 84 | 1021.4 |
| 20260506162507 | 59 | 242 | 0.0 | 0.9 | 0.00 | 0.00 | 0.00 | 85 | 1021.3 |
| 20260506162011 | 58 | 238 | 0.0 | 0.0 | 0.00 | 0.00 | 0.00 | 85 | 1021.3 |
| 20260506161522 | 58 | 238 | 0.0 | 0.0 | 0.00 | 0.00 | 0.00 | 84 | 1021.2 |
| 20260506161010 | 58 | 238 | 0.0 | 4.3 | 0.00 | 0.00 | 0.00 | 86 | 1021.2 |
| 20260506160511 | 58 | 180 | 0.0 | 4.3 | 0.00 | 0.00 | 0.00 | 86 | 1021.2 |
| 20260506160006 | 58 | 258 | 0.0 | 0.0 | 0.00 | 0.00 | 0.00 | 86 | 1021.1 |
| 20260506155507 | 58 | 258 | 0.0 | 0.0 | 0.00 | 0.00 | 0.00 | 85 | 1021.1 |
| 20260506155006 | 58 | 258 | 0.0 | 0.0 | 0.00 | 0.00 | 0.00 | 86 | 1021.2 |
| 20260506154510 | 58 | 258 | 0.0 | 0.0 | 0.00 | 0.00 | 0.00 | 87 | 1021.3 |
| 20260506154006 | 57 | 258 | 0.0 | 0.0 | 0.00 | 0.00 | 0.00 | 87 | 1021.1 |
| 20260506153506 | 57 | 258 | 0.0 | 0.0 | 0.00 | 0.00 | 0.00 | 88 | 1021.2 |
| 20260506153020 | 57 | 258 | 0.0 | 0.0 | 0.00 | 0.00 | 0.00 | 88 | 1021.3 |
| 20260506152509 | 56 | 258 | 0.0 | 0.0 | 0.00 | 0.00 | 0.00 | 89 | 1021.2 |
| 20260506152009 | 56 | 258 | 0.0 | 0.0 | 0.00 | 0.00 | 0.00 | 89 | 1021.3 |
| 20260506151520 | 56 | 258 | 0.0 | 0.0 | 0.00 | 0.00 | 0.00 | 89 | 1021.3 |
| 20260506151010 | 55 | 258 | 0.0 | 0.0 | 0.00 | 0.00 | 0.00 | 89 | 1021.2 |
| 20260506150508 | 55 | 258 | 0.0 | 0.0 | 0.00 | 0.00 | 0.00 | 89 | 1021.1 |
| 20260506150005 | 55 | 257 | 0.0 | 0.0 | 0.00 | 0.00 | 0.00 | 89 | 1021.1 |
| 20260506145508 | 55 | 205 | 0.0 | 0.0 | 0.00 | 0.00 | 0.00 | 89 | 1021.1 |
| 20260506145006 | 55 | 205 | 0.0 | 0.0 | 0.00 | 0.00 | 0.00 | 91 | 1021.0 |
| 20260506144513 | 55 | 205 | 0.0 | 0.0 | 0.00 | 0.00 | 0.00 | 91 | 1021.0 |
| 20260506144007 | 55 | 205 | 0.0 | 0.0 | 0.00 | 0.00 | 0.00 | 92 | 1021.0 |
| 20260506143510 | 54 | 205 | 0.0 | 0.0 | 0.00 | 0.00 | 0.00 | 92 | 1021.0 |
| 20260506143028 | 54 | 205 | 0.0 | 0.0 | 0.00 | 0.00 | 0.00 | 92 | 1021.1 |
| 20260506142511 | 54 | 205 | 0.0 | 0.0 | 0.00 | 0.00 | 0.00 | 92 | 1021.1 |
| 20260506142009 | 54 | 205 | 0.0 | 0.0 | 0.00 | 0.00 | 0.00 | 93 | 1021.0 |
| 20260506141524 | 54 | 205 | 0.0 | 0.0 | 0.00 | 0.00 | 0.00 | 92 | 1020.9 |
| 20260506141009 | 54 | 205 | 0.0 | 0.0 | 0.00 | 0.00 | 0.00 | 92 | 1020.9 |
| 20260506140505 | 54 | 205 | 0.0 | 0.0 | 0.00 | 0.00 | 0.00 | 92 | 1020.7 |
| 20260506140010 | 53 | 205 | 0.0 | 0.0 | 0.00 | 0.00 | 0.00 | 92 | 1020.7 |
| 20260506135503 | 53 | 205 | 0.0 | 0.0 | 0.00 | 0.00 | 0.00 | 92 | 1020.6 |
| 20260506135007 | 53 | 205 | 0.0 | 0.0 | 0.00 | 0.00 | 0.00 | 93 | 1020.6 |
| 20260506134513 | 53 | 205 | 0.0 | 0.0 | 0.00 | 0.00 | 0.00 | 92 | 1020.7 |
| 20260506133508 | 53 | 205 | 0.0 | 0.0 | 0.00 | 0.00 | 0.00 | 92 | 1020.6 |
| 20260506133023 | 53 | 205 | 0.0 | 0.0 | 0.00 | 0.00 | 0.00 | 92 | 1020.5 |
| 20260506132511 | 53 | 205 | 0.0 | 0.0 | 0.00 | 0.00 | 0.00 | 92 | 1020.5 |
| 20260506132012 | 53 | 205 | 0.0 | 0.0 | 0.00 | 0.00 | 0.00 | 92 | 1020.5 |
| 20260506131528 | 53 | 205 | 0.0 | 0.0 | 0.00 | 0.00 | 0.00 | 91 | 1020.5 |
| 20260506131010 | 53 | 205 | 0.0 | 0.0 | 0.00 | 0.00 | 0.00 | 92 | 1020.5 |
| 20260506130015 | 53 | 205 | 0.0 | 0.0 | 0.00 | 0.00 | 0.00 | 92 | 1020.5 |
| 20260506125010 | 53 | 205 | 0.0 | 0.0 | 0.00 | 0.00 | 0.00 | 91 | 1020.5 |
| 20260506124009 | 53 | 205 | 0.0 | 0.0 | 0.00 | 0.00 | 0.00 | 91 | 1020.5 |
| 20260506123508 | 53 | 205 | 0.0 | 0.0 | 0.00 | 0.00 | 0.00 | 91 | 1020.4 |
| 20260506123029 | 53 | 205 | 0.0 | 0.0 | 0.00 | 0.00 | 0.00 | 91 | 1020.4 |
| 20260506122510 | 53 | 205 | 0.0 | 0.0 | 0.00 | 0.00 | 0.00 | 91 | 1020.4 |
| 20260506122012 | 53 | 205 | 0.0 | 0.0 | 0.00 | 0.00 | 0.00 | 91 | 1020.3 |
| 20260506121526 | 53 | 205 | 0.0 | 0.0 | 0.00 | 0.00 | 0.00 | 91 | 1020.3 |
| 20260506121011 | 53 | 205 | 0.0 | 0.0 | 0.00 | 0.00 | 0.00 | 91 | 1020.2 |
| 20260506120507 | 53 | 205 | 0.0 | 0.0 | 0.00 | 0.00 | 0.00 | 91 | 1020.2 |
| 20260506115505 | 53 | 205 | 0.0 | 0.0 | 0.00 | 0.00 | 0.00 | 91 | 1020.1 |
| 20260506115011 | 53 | 205 | 0.0 | 0.0 | 0.00 | 0.00 | 0.00 | 91 | 1020.1 |
| 20260506114520 | 53 | 205 | 0.0 | 0.0 | 0.00 | 0.00 | 0.00 | 91 | 1020.2 |
| 20260506114011 | 53 | 205 | 0.0 | 0.0 | 0.00 | 0.00 | 0.00 | 92 | 1020.1 |
| 20260506113511 | 53 | 205 | 0.0 | 0.0 | 0.00 | 0.00 | 0.00 | 91 | 1020.1 |
| 20260506113029 | 53 | 205 | 0.0 | 0.0 | 0.00 | 0.00 | 0.00 | 91 | 1020.1 |
| 20260506112507 | 53 | 205 | 0.0 | 0.0 | 0.00 | 0.00 | 0.00 | 91 | 1019.9 |
| 20260506112015 | 53 | 205 | 0.0 | 0.0 | 0.00 | 0.00 | 0.00 | 92 | 1020.0 |
| 20260506111523 | 53 | 205 | 0.0 | 0.0 | 0.00 | 0.00 | 0.00 | 92 | 1020.0 |
| 20260506111017 | 53 | 205 | 0.0 | 0.0 | 0.00 | 0.00 | 0.00 | 92 | 1019.8 |
| 20260506110507 | 53 | 205 | 0.0 | 0.0 | 0.00 | 0.00 | 0.00 | 92 | 1019.8 |
| 20260506110016 | 53 | 205 | 0.0 | 0.0 | 0.00 | 0.00 | 0.00 | 92 | 1019.8 |
| 20260506105508 | 53 | 205 | 0.0 | 0.0 | 0.00 | 0.00 | 0.00 | 92 | 1019.7 |
| 20260506105008 | 53 | 205 | 0.0 | 0.0 | 0.00 | 0.00 | 0.00 | 93 | 1019.7 |
| 20260506104522 | 53 | 205 | 0.0 | 0.0 | 0.00 | 0.00 | 0.00 | 93 | 1019.6 |
| 20260506104010 | 53 | 205 | 0.0 | 0.0 | 0.00 | 0.00 | 0.00 | 93 | 1019.6 |
| 20260506103511 | 53 | 205 | 0.0 | 0.0 | 0.00 | 0.00 | 0.00 | 93 | 1019.6 |
| 20260506103029 | 53 | 205 | 0.0 | 0.0 | 0.00 | 0.00 | 0.00 | 93 | 1019.6 |
| 20260506102510 | 53 | 205 | 0.0 | 0.0 | 0.00 | 0.00 | 0.00 | 93 | 1019.5 |
| 20260506102010 | 53 | 205 | 0.0 | 0.0 | 0.00 | 0.00 | 0.00 | 93 | 1019.4 |
| 20260506101526 | 53 | 205 | 0.0 | 0.0 | 0.00 | 0.00 | 0.00 | 93 | 1019.4 |
| 20260506101010 | 53 | 205 | 0.0 | 0.0 | 0.00 | 0.00 | 0.00 | 93 | 1019.5 |
| 20260506095508 | 53 | 205 | 0.0 | 0.0 | 0.00 | 0.00 | 0.00 | 93 | 1019.4 |
| 20260506095007 | 53 | 205 | 0.0 | 0.0 | 0.00 | 0.00 | 0.00 | 93 | 1019.5 |
| 20260506094524 | 53 | 205 | 0.0 | 0.0 | 0.00 | 0.00 | 0.00 | 93 | 1019.4 |
| 20260506094005 | 53 | 205 | 0.0 | 0.0 | 0.00 | 0.00 | 0.00 | 93 | 1019.4 |
| 20260506093503 | 54 | 205 | 0.0 | 0.0 | 0.00 | 0.00 | 0.00 | 93 | 1019.4 |
| 20260506093006 | 54 | 205 | 0.0 | 0.0 | 0.00 | 0.00 | 0.00 | 93 | 1019.4 |
| 20260506092504 | 54 | 205 | 0.0 | 0.0 | 0.00 | 0.00 | 0.00 | 93 | 1019.5 |
| 20260506092007 | 54 | 205 | 0.0 | 0.0 | 0.00 | 0.00 | 0.00 | 92 | 1019.5 |
| 20260506091517 | 54 | 205 | 0.0 | 0.0 | 0.00 | 0.00 | 0.00 | 92 | 1019.5 |
| 20260506091003 | 54 | 205 | 0.0 | 0.0 | 0.00 | 0.00 | 0.00 | 92 | 1019.5 |
| 20260506090503 | 54 | 205 | 0.0 | 0.0 | 0.00 | 0.00 | 0.00 | 92 | 1019.5 |
| 20260506090006 | 54 | 205 | 0.0 | 0.0 | 0.00 | 0.00 | 0.00 | 92 | 1019.5 |
| 20260506085508 | 54 | 205 | 0.0 | 0.0 | 0.00 | 0.00 | 0.00 | 92 | 1019.5 |
| 20260506085003 | 54 | 205 | 0.0 | 0.0 | 0.00 | 0.00 | 0.00 | 92 | 1019.5 |
| 20260506084503 | 54 | 205 | 0.0 | 0.0 | 0.00 | 0.00 | 0.00 | 91 | 1019.4 |
| 20260506084004 | 54 | 205 | 0.0 | 0.0 | 0.00 | 0.00 | 0.00 | 91 | 1019.5 |
| 20260506083504 | 54 | 205 | 0.0 | 0.0 | 0.00 | 0.00 | 0.00 | 91 | 1019.5 |
| 20260506083008 | 54 | 205 | 0.0 | 0.0 | 0.00 | 0.00 | 0.00 | 91 | 1019.5 |
| 20260506082505 | 54 | 205 | 0.0 | 0.0 | 0.00 | 0.00 | 0.00 | 91 | 1019.5 |
| 20260506082009 | 54 | 205 | 0.0 | 0.0 | 0.00 | 0.00 | 0.00 | 91 | 1019.5 |
| 20260506081518 | 54 | 205 | 0.0 | 0.0 | 0.00 | 0.00 | 0.00 | 91 | 1019.5 |
| 20260506081005 | 54 | 205 | 0.0 | 0.0 | 0.00 | 0.00 | 0.00 | 90 | 1019.5 |
| 20260506080503 | 54 | 205 | 0.0 | 0.0 | 0.00 | 0.00 | 0.00 | 91 | 1019.5 |
| 20260506073012 | 54 | 205 | 0.0 | 0.0 | 0.00 | 0.01 | 0.00 | 90 | 1019.4 |
| 20260506072513 | 54 | 205 | 0.0 | 0.0 | 0.00 | 0.01 | 0.00 | 90 | 1019.3 |
| 20260506071519 | 54 | 205 | 0.0 | 0.0 | 0.00 | 0.01 | 0.00 | 90 | 1019.2 |
| 20260506071003 | 54 | 205 | 0.0 | 0.0 | 0.00 | 0.01 | 0.00 | 90 | 1019.2 |
| 20260506070503 | 55 | 205 | 0.0 | 0.0 | 0.00 | 0.02 | 0.00 | 90 | 1019.1 |
| 20260506062010 | 55 | 236 | 0.0 | 1.7 | 0.00 | 0.06 | 0.02 | 89 | 1018.7 |
| 20260506061540 | 55 | 141 | 0.0 | 0.9 | 0.00 | 0.06 | 0.02 | 88 | 1018.7 |
| 20260506061004 | 55 | 141 | 0.0 | 0.0 | 0.00 | 0.06 | 0.02 | 88 | 1018.6 |
| 20260506060504 | 55 | 141 | 0.0 | 0.0 | 0.00 | 0.07 | 0.02 | 88 | 1018.6 |
| 20260506051004 | 56 | 165 | 0.0 | 0.0 | 0.00 | 0.13 | 0.02 | 88 | 1018.1 |
| 20260506050506 | 56 | 165 | 0.0 | 0.0 | 0.00 | 0.13 | 0.02 | 88 | 1018.1 |
| 20260506045007 | 56 | 165 | 0.0 | 0.0 | 0.00 | 0.13 | 0.02 | 88 | 1017.8 |
| 20260506044520 | 56 | 165 | 0.0 | 0.0 | 0.00 | 0.13 | 0.02 | 88 | 1017.9 |
| 20260506044004 | 56 | 165 | 0.0 | 0.0 | 0.00 | 0.13 | 0.02 | 88 | 1017.8 |
| 20260506043508 | 56 | 165 | 0.0 | 0.0 | 0.00 | 0.13 | 0.02 | 88 | 1017.7 |
| 20260506043034 | 56 | 165 | 0.0 | 0.0 | 0.00 | 0.13 | 0.02 | 88 | 1017.6 |
| 20260506042506 | 56 | 165 | 0.0 | 0.0 | 0.00 | 0.14 | 0.02 | 88 | 1017.7 |
| 20260506042008 | 56 | 165 | 0.0 | 0.0 | 0.00 | 0.14 | 0.02 | 88 | 1017.5 |
| 20260506041524 | 56 | 165 | 0.0 | 0.0 | 0.00 | 0.15 | 0.02 | 87 | 1017.4 |
| 20260506041003 | 56 | 165 | 0.0 | 0.0 | 0.00 | 0.15 | 0.02 | 87 | 1017.4 |
| 20260506040504 | 56 | 165 | 0.0 | 0.0 | 0.00 | 0.16 | 0.02 | 87 | 1017.2 |
| 20260506040007 | 56 | 165 | 0.0 | 0.0 | 0.00 | 0.17 | 0.02 | 86 | 1017.3 |
| 20260506035505 | 56 | 165 | 0.0 | 0.0 | 0.00 | 0.18 | 0.02 | 86 | 1017.3 |
| 20260506035009 | 56 | 165 | 0.0 | 0.0 | 0.00 | 0.18 | 0.02 | 86 | 1017.4 |
| 20260506034514 | 57 | 165 | 0.0 | 0.0 | 0.00 | 0.19 | 0.02 | 86 | 1017.4 |
| 20260506034007 | 57 | 165 | 0.0 | 0.0 | 0.00 | 0.20 | 0.02 | 86 | 1017.5 |
| 20260506033507 | 57 | 165 | 0.0 | 0.0 | 0.00 | 0.21 | 0.02 | 86 | 1017.4 |
| 20260506033019 | 57 | 165 | 0.0 | 0.0 | 0.00 | 0.22 | 0.02 | 85 | 1017.3 |
| 20260506032507 | 57 | 165 | 0.0 | 0.0 | 0.00 | 0.23 | 0.02 | 85 | 1017.2 |
| 20260506032009 | 57 | 165 | 0.0 | 0.0 | 0.00 | 0.23 | 0.02 | 84 | 1017.1 |
| 20260506031529 | 57 | 165 | 0.0 | 0.0 | 0.00 | 0.24 | 0.02 | 84 | 1017.1 |
| 20260506031006 | 57 | 165 | 0.0 | 0.0 | 0.00 | 0.26 | 0.02 | 84 | 1017.0 |
| 20260506030503 | 57 | 165 | 0.0 | 0.0 | 0.00 | 0.28 | 0.02 | 84 | 1016.8 |
| 20260506030007 | 57 | 165 | 0.0 | 0.0 | 0.00 | 0.31 | 0.02 | 84 | 1016.6 |
| 20260506025504 | 57 | 157 | 0.0 | 0.0 | 0.00 | 0.33 | 0.02 | 84 | 1016.6 |
| 20260506025004 | 57 | 150 | 0.0 | 0.0 | 0.00 | 0.34 | 0.02 | 83 | 1016.6 |
| 20260506024531 | 58 | 192 | 0.0 | 0.0 | 0.00 | 0.36 | 0.02 | 83 | 1016.5 |
| 20260506024007 | 58 | 196 | 0.0 | 2.6 | 0.00 | 0.37 | 0.02 | 83 | 1016.6 |
| 20260506023508 | 58 | 194 | 0.0 | 2.6 | 0.00 | 0.38 | 0.02 | 83 | 1016.6 |
| 20260506023022 | 58 | 207 | 0.0 | 0.9 | 0.00 | 0.39 | 0.02 | 83 | 1016.5 |
| 20260506022511 | 58 | 210 | 0.0 | 0.9 | 0.00 | 0.39 | 0.02 | 82 | 1016.5 |
| 20260506022007 | 58 | 210 | 0.0 | 1.7 | 0.00 | 0.39 | 0.02 | 82 | 1016.5 |
| 20260506021524 | 58 | 259 | 0.0 | 3.5 | 0.00 | 0.39 | 0.02 | 82 | 1016.2 |
| 20260506020504 | 58 | 193 | 0.0 | 2.6 | 0.00 | 0.40 | 0.02 | 82 | 1016.1 |
| 20260506015007 | 58 | 200 | 0.0 | 2.6 | 0.00 | 0.41 | 0.02 | 81 | 1016.3 |
| 20260506014008 | 58 | 254 | 0.0 | 0.0 | 0.00 | 0.42 | 0.02 | 82 | 1016.3 |
| 20260506013023 | 58 | 246 | 0.0 | 0.0 | 0.00 | 0.44 | 0.02 | 82 | 1016.3 |
| 20260506012508 | 58 | 242 | 0.0 | 0.9 | 0.00 | 0.45 | 0.02 | 82 | 1016.3 |
| 20260506012012 | 58 | 225 | 0.0 | 1.7 | 0.00 | 0.45 | 0.02 | 81 | 1016.3 |
| 20260506011505 | 58 | 190 | 0.0 | 1.7 | 0.00 | 0.45 | 0.02 | 80 | 1016.2 |
| 20260506011008 | 58 | 59 | 0.0 | 0.0 | 0.00 | 0.46 | 0.02 | 81 | 1016.3 |
| 20260506010504 | 58 | 59 | 0.0 | 1.7 | 0.00 | 0.46 | 0.02 | 82 | 1016.1 |
| 20260506005505 | 58 | 103 | 0.0 | 2.6 | 0.00 | 0.46 | 0.02 | 82 | 1016.1 |
| 20260506005007 | 58 | 209 | 0.0 | 2.6 | 0.00 | 0.47 | 0.02 | 82 | 1016.1 |
| 20260506004007 | 58 | 227 | 0.0 | 0.9 | 0.00 | 0.48 | 0.02 | 81 | 1016.0 |
| 20260506003510 | 58 | 184 | 0.0 | 0.9 | 0.00 | 0.49 | 0.02 | 82 | 1016.0 |
| 20260506003021 | 58 | 113 | 0.0 | 0.0 | 0.00 | 0.49 | 0.02 | 82 | 1015.9 |
| 20260506002509 | 58 | 132 | 0.0 | 0.9 | 0.00 | 0.49 | 0.02 | 82 | 1016.0 |
| 20260506002010 | 58 | 166 | 0.0 | 0.9 | 0.00 | 0.50 | 0.02 | 83 | 1016.0 |
| 20260506001507 | 58 | 138 | 0.0 | 1.7 | 0.00 | 0.50 | 0.02 | 82 | 1016.0 |
| 20260506001003 | 58 | 133 | 0.0 | 1.7 | 0.00 | 0.50 | 0.02 | 82 | 1016.0 |
| 20260506000508 | 58 | 168 | 0.0 | 4.3 | 0.00 | 0.51 | 0.02 | 82 | 1016.0 |
| 20260506000011 | 58 | 150 | 0.0 | 4.3 | 0.00 | 0.52 | 0.02 | 81 | 1015.9 |
| 20260505235508 | 58 | 208 | 0.9 | 3.5 | 0.00 | 0.52 | 0.02 | 80 | 1015.9 |
| 20260505235008 | 58 | 192 | 0.0 | 2.6 | 0.00 | 0.54 | 0.02 | 80 | 1016.0 |
| 20260505234520 | 59 | 209 | 0.0 | 2.6 | 0.00 | 0.55 | 0.02 | 81 | 1015.9 |
| 20260505234011 | 59 | 221 | 0.0 | 2.6 | 0.00 | 0.56 | 0.02 | 80 | 1015.8 |
| 20260505233509 | 58 | 196 | 0.0 | 2.6 | 0.00 | 0.56 | 0.02 | 79 | 1015.8 |
| 20260505233025 | 58 | 196 | 0.0 | 1.7 | 0.00 | 0.56 | 0.02 | 79 | 1015.9 |
| 20260505232512 | 58 | 215 | 0.0 | 2.6 | 0.00 | 0.57 | 0.02 | 80 | 1015.9 |
| 20260505232011 | 58 | 182 | 0.0 | 3.5 | 0.00 | 0.58 | 0.02 | 79 | 1015.9 |
| 20260505231510 | 58 | 211 | 0.9 | 3.5 | 0.00 | 0.58 | 0.02 | 80 | 1015.9 |
| 20260505231008 | 58 | 205 | 0.0 | 2.6 | 0.00 | 0.58 | 0.02 | 81 | 1015.9 |
| 20260505230505 | 58 | 113 | 0.0 | 3.5 | 0.00 | 0.60 | 0.02 | 80 | 1015.9 |
| 20260505230018 | 58 | 229 | 0.0 | 3.5 | 0.00 | 0.61 | 0.02 | 81 | 1015.9 |
| 20260505225508 | 58 | 216 | 0.0 | 2.6 | 0.00 | 0.62 | 0.02 | 81 | 1015.8 |
| 20260505225008 | 58 | 193 | 0.0 | 2.6 | 0.00 | 0.63 | 0.02 | 81 | 1015.9 |
| 20260505224522 | 58 | 215 | 0.0 | 2.6 | 0.00 | 0.64 | 0.02 | 82 | 1015.9 |
| 20260505224002 | 58 | 181 | 0.0 | 3.5 | 0.00 | 0.64 | 0.02 | 82 | 1015.9 |
| 20260505223503 | 58 | 194 | 0.9 | 3.5 | 0.00 | 0.64 | 0.02 | 81 | 1015.9 |
| 20260505223004 | 58 | 236 | 0.0 | 3.5 | 0.00 | 0.64 | 0.02 | 82 | 1016.0 |
| 20260505222503 | 58 | 185 | 0.0 | 3.5 | 0.00 | 0.64 | 0.02 | 82 | 1016.0 |
| 20260505222005 | 58 | 207 | 0.0 | 2.6 | 0.00 | 0.64 | 0.02 | 83 | 1016.0 |
| 20260505221506 | 58 | 209 | 0.0 | 2.6 | 0.00 | 0.65 | 0.02 | 82 | 1016.1 |
| 20260505221004 | 58 | 266 | 0.0 | 2.6 | 0.00 | 0.65 | 0.02 | 81 | 1016.1 |
| 20260505220504 | 58 | 229 | 0.0 | 4.3 | 0.00 | 0.65 | 0.02 | 81 | 1016.2 |
| 20260505220003 | 58 | 223 | 1.7 | 4.3 | 0.00 | 0.65 | 0.02 | 82 | 1016.2 |
| 20260505215503 | 58 | 204 | 0.0 | 4.3 | 0.00 | 0.65 | 0.02 | 82 | 1016.2 |
| 20260505215003 | 58 | 152 | 0.0 | 4.3 | 0.00 | 0.66 | 0.02 | 81 | 1016.2 |
| 20260505214503 | 58 | 219 | 0.9 | 3.5 | 0.00 | 0.66 | 0.02 | 81 | 1016.1 |
| 20260505214002 | 58 | 199 | 0.0 | 3.5 | 0.00 | 0.67 | 0.02 | 80 | 1016.2 |
| 20260505213502 | 58 | 177 | 0.9 | 3.5 | 0.00 | 0.68 | 0.02 | 81 | 1016.2 |
| 20260505213008 | 58 | 184 | 0.9 | 4.3 | 0.00 | 0.69 | 0.02 | 80 | 1016.2 |
| 20260505212506 | 58 | 279 | 0.0 | 4.3 | 0.00 | 0.70 | 0.02 | 82 | 1016.1 |
| 20260505212004 | 58 | 204 | 0.0 | 3.5 | 0.00 | 0.70 | 0.02 | 80 | 1016.2 |
| 20260505211506 | 58 | 197 | 0.9 | 3.5 | 0.00 | 0.70 | 0.02 | 80 | 1016.2 |
| 20260505211005 | 58 | 234 | 0.9 | 4.3 | 0.00 | 0.70 | 0.02 | 81 | 1016.2 |
| 20260505210508 | 58 | 261 | 0.9 | 4.3 | 0.00 | 0.70 | 0.02 | 81 | 1016.2 |
| 20260505210004 | 58 | 276 | 0.0 | 4.3 | 0.00 | 0.71 | 0.02 | 82 | 1016.2 |
| 20260505205504 | 57 | 299 | 0.0 | 5.2 | 0.00 | 0.71 | 0.02 | 82 | 1016.2 |
| 20260505205004 | 57 | 196 | 2.6 | 5.2 | 0.00 | 0.71 | 0.02 | 81 | 1016.2 |
| 20260505204503 | 57 | 216 | 0.9 | 3.5 | 0.00 | 0.71 | 0.02 | 81 | 1016.2 |
| 20260505204003 | 57 | 313 | 0.9 | 6.1 | 0.00 | 0.71 | 0.02 | 82 | 1016.2 |
| 20260505203503 | 57 | 231 | 0.9 | 6.1 | 0.00 | 0.71 | 0.02 | 81 | 1016.2 |
| 20260505203004 | 57 | 225 | 0.9 | 6.1 | 0.00 | 0.71 | 0.02 | 82 | 1016.2 |
| 20260505202506 | 57 | 243 | 0.0 | 4.3 | 0.00 | 0.71 | 0.02 | 82 | 1016.2 |
| 20260505202003 | 57 | 261 | 0.0 | 4.3 | 0.00 | 0.71 | 0.02 | 83 | 1016.2 |
| 20260505201512 | 57 | 188 | 0.9 | 3.5 | 0.00 | 0.71 | 0.02 | 82 | 1016.2 |
| 20260505201003 | 57 | 250 | 0.9 | 3.5 | 0.00 | 0.71 | 0.02 | 83 | 1016.2 |
| 20260505200504 | 57 | 267 | 0.0 | 2.6 | 0.00 | 0.71 | 0.02 | 83 | 1016.2 |
| 20260505200004 | 56 | 266 | 0.0 | 1.7 | 0.00 | 0.71 | 0.02 | 84 | 1016.3 |
| 20260505195502 | 56 | 271 | 0.0 | 1.7 | 0.00 | 0.71 | 0.02 | 84 | 1016.3 |
| 20260505195002 | 56 | 232 | 0.0 | 1.7 | 0.00 | 0.71 | 0.02 | 83 | 1016.3 |
| 20260505194508 | 56 | 219 | 0.0 | 5.2 | 0.00 | 0.71 | 0.02 | 83 | 1016.3 |
| 20260505194004 | 57 | 226 | 0.0 | 5.2 | 0.00 | 0.71 | 0.02 | 84 | 1016.3 |
| 20260505193506 | 56 | 202 | 0.9 | 5.2 | 0.00 | 0.71 | 0.02 | 84 | 1016.3 |
| 20260505192508 | 57 | 215 | 0.9 | 7.0 | 0.00 | 0.71 | 0.02 | 84 | 1016.3 |
| 20260505192009 | 57 | 240 | 0.0 | 5.2 | 0.00 | 0.72 | 0.02 | 83 | 1016.3 |
| 20260505191512 | 57 | 225 | 1.7 | 6.1 | 0.00 | 0.72 | 0.02 | 81 | 1016.4 |
| 20260505191006 | 57 | 255 | 2.6 | 6.1 | 0.00 | 0.72 | 0.02 | 82 | 1016.3 |
| 20260505190504 | 57 | 217 | 1.7 | 5.2 | 0.00 | 0.73 | 0.02 | 83 | 1016.3 |
| 20260505185507 | 56 | 202 | 1.7 | 6.1 | 0.00 | 0.74 | 0.02 | 83 | 1016.2 |
| 20260505185005 | 56 | 221 | 0.0 | 4.3 | 0.00 | 0.74 | 0.02 | 84 | 1016.2 |
| 20260505184510 | 56 | 200 | 0.0 | 4.3 | 0.00 | 0.75 | 0.02 | 83 | 1016.1 |
| 20260505184006 | 56 | 171 | 1.7 | 4.3 | 0.00 | 0.75 | 0.02 | 83 | 1016.2 |
| 20260505183507 | 56 | 237 | 0.9 | 4.3 | 0.00 | 0.75 | 0.02 | 85 | 1016.1 |
| 20260505181512 | 55 | 238 | 0.0 | 5.2 | 0.00 | 0.75 | 0.02 | 86 | 1016.1 |
| 20260505181004 | 55 | 225 | 0.9 | 5.2 | 0.00 | 0.75 | 0.02 | 85 | 1016.0 |
| 20260505180506 | 55 | 213 | 0.0 | 3.5 | 0.00 | 0.75 | 0.02 | 86 | 1016.0 |
| 20260505180008 | 55 | 94 | 0.0 | 3.5 | 0.00 | 0.75 | 0.02 | 87 | 1016.0 |
| 20260505175507 | 55 | 219 | 0.0 | 3.5 | 0.00 | 0.75 | 0.02 | 87 | 1016.0 |
| 20260505175006 | 54 | 198 | 0.9 | 2.6 | 0.00 | 0.75 | 0.02 | 89 | 1016.0 |
| 20260505174509 | 54 | 183 | 0.0 | 2.6 | 0.00 | 0.75 | 0.02 | 91 | 1015.9 |
| 20260505174006 | 53 | 188 | 0.0 | 2.6 | 0.00 | 0.75 | 0.02 | 91 | 1015.8 |
| 20260505173512 | 53 | 225 | 0.0 | 3.5 | 0.00 | 0.75 | 0.02 | 90 | 1015.8 |
| 20260505173012 | 53 | 235 | 0.9 | 5.2 | 0.00 | 0.75 | 0.02 | 92 | 1015.7 |
| 20260505172507 | 52 | 246 | 0.0 | 5.2 | 0.00 | 0.75 | 0.02 | 93 | 1015.6 |
| 20260505172006 | 52 | 202 | 0.9 | 5.2 | 0.00 | 0.75 | 0.02 | 94 | 1015.7 |
| 20260505171511 | 52 | 221 | 0.0 | 5.2 | 0.00 | 0.75 | 0.02 | 93 | 1015.8 |
| 20260505170009 | 51 | 226 | 0.0 | 2.6 | 0.00 | 0.75 | 0.02 | 95 | 1015.9 |
| 20260505165503 | 51 | 191 | 0.0 | 2.6 | 0.00 | 0.75 | 0.02 | 95 | 1016.0 |
| 20260505165003 | 51 | 294 | 0.0 | 3.5 | 0.00 | 0.76 | 0.02 | 95 | 1015.9 |
| 20260505164511 | 51 | 239 | 0.9 | 3.5 | 0.00 | 0.77 | 0.02 | 96 | 1015.9 |